Location: Stara Lesna
(49.1528°N, 20.2911°E)
Time: 10:02:35
(UTC+02:00)

SL-8 R/B - Pass Details

Date: 13 July 2020
Orbit: 656 x 668 km, 48.4° (Epoch: 06 August)

Event Time Altitude Azimuth Distance (km) Brightness Sun altitude
Exits shadow 03:17:32 12° 246° (WSW) 1,953 5.6 -11.3°
Maximum altitude 03:21:58 67° 165° (SSE) 718 3.7 -10.9°
Drops below altitude 10° 03:26:44 10° 83° (E) 2,079 6.9 -10.4°
Sets 03:29:05 0° 81° (E) 2,991 7.9 -10.2°
